H1 CPF 2 NER 2022 7 21 9 202 01 glonass139 H2 1808601 9139 43687 2022 7 21 0 0 0 2022 7 24 23 45 0 900 1 1 0 0 0 1 H9 10 0 59781 0.00000 0 -15586985.521 8054060.687 -18487376.443 10 0 59781 900.00000 0 -14316200.781 6025552.202 -20205864.455 10 0 59781 1800.00000 0 -13111237.168 3742772.271 -21530908.505 10 0 59781 2700.00000 0 -12020753.193 1252252.051 -22436682.881 10 0 59781 3600.00000 0 -11084972.059 -1390472.249 -22905541.810 10 0 59781 4500.00000 0 -10334019.654 -4122927.130 -22928365.257 10 0 59781 5400.00000 0 -9786707.955 -6878064.647 -22504736.550 10 0 59781 6300.00000 0 -9449814.859 -9586822.081 -21642948.445 10 0 59781 7200.00000 0 -9317890.293 -12180771.676 -20359837.636 10 0 59781 8100.00000 0 -9373595.999 -14594750.056 -18680451.194 10 0 59781 9000.00000 0 -9588563.693 -16769357.802 -16637551.703 10 0 59781 9900.00000 0 -9924734.282 -18653225.009 -14270971.115 10 0 59781 10800.00000 0 -10336120.381 -20204948.797 -11626826.408 10 0 59781 11700.00000 0 -10770916.423 -21394622.481 -8756612.823 10 0 59781 12600.00000 0 -11173865.994 -22204893.459 -5716193.087 10 0 59781 13500.00000 0 -11488785.236 -22631506.917 -2564702.995 10 0 59781 14400.00000 0 -11661134.686 -22683314.124 636604.645 10 0 59781 15300.00000 0 -11640530.151 -22381746.757 3825554.439 10 0 59781 16200.00000 0 -11383086.054 -21759781.152 6940257.444 10 0 59781 17100.00000 0 -10853492.061 -20860437.725 9920311.019 10 0 59781 18000.00000 0 -10026735.386 -19734880.066 12707966.028 10 0 59781 18900.00000 0 -8889396.299 -18440194.691 15249239.057 10 0 59781 19800.00000 0 -7440462.442 -17036945.317 17494948.691 10 0 59781 20700.00000 0 -5691627.804 -15586604.426 19401656.598 10 0 59781 21600.00000 0 -3667063.638 -14148969.441 20932496.402 10 0 59781 22500.00000 0 -1402670.371 -12779670.921 22057875.568 10 0 59781 23400.00000 0 1055159.070 -11527875.954 22756037.950 10 0 59781 24300.00000 0 3651214.214 -10434281.468 23013477.306 10 0 59781 25200.00000 0 6323512.201 -9529479.954 22825194.655 10 0 59781 26100.00000 0 9005629.889 -8832764.742 22194794.973 10 0 59781 27000.00000 0 11629228.045 -8351423.743 21134421.487 10 0 59781 27900.00000 0 14126664.805 -8080550.600 19664528.403 10 0 59781 28800.00000 0 16433591.600 -8003380.924 17813495.728 10 0 59781 29700.00000 0 18491425.218 -8092139.677 15617092.496 10 0 59781 30600.00000 0 20249594.346 -8309364.553 13117797.438 10 0 59781 31500.00000 0 21667467.604 -8609650.420 10363988.925 10 0 59781 32400.00000 0 22715882.957 -8941742.004 7409018.531 10 0 59781 33300.00000 0 23378214.420 -9250887.174 4310185.054 10 0 59781 34200.00000 0 23650930.913 -9481351.775 1127628.216 10 0 59781 35100.00000 0 23543623.211 -9578989.652 -2076836.954 10 0 59781 36000.00000 0 23078497.152 -9493758.655 -5240922.416 10 0 59781 36900.00000 0 22289353.756 -9182075.224 -8303082.322 10 0 59781 37800.00000 0 21220098.706 -8608906.572 -11203716.879 10 0 59781 38700.00000 0 19922843.708 -7749510.214 -13886340.647 10 0 59781 39600.00000 0 18455679.717 -6590745.458 -16298691.512 10 0 59781 40500.00000 0 16880216.071 -5131899.393 -18393757.872 10 0 59781 41400.00000 0 15258989.572 -3384990.529 -20130703.206 10 0 59781 42300.00000 0 13652853.158 -1374535.454 -21475669.260 10 0 59781 43200.00000 0 12118454.558 863213.383 -22402441.744 10 0 59781 44100.00000 0 10705911.390 3281528.183 -22892965.237 10 0 59781 45000.00000 0 9456780.775 5824912.779 -22937697.062 10 0 59781 45900.00000 0 8402408.763 8431185.454 -22535793.243 10 0 59781 46800.00000 0 7562728.677 11033851.014 -21695122.968 10 0 59781 47700.00000 0 6945558.313 13564663.181 -20432111.427 10 0 59781 48600.00000 0 6546424.646 15956270.435 -18771414.339 10 0 59781 49500.00000 0 6348922.222 18144834.889 -16745430.741 10 0 59781 50400.00000 0 6325588.799 20072514.756 -14393663.953 10 0 59781 51300.00000 0 6439259.779 21689706.952 -11761943.630 10 0 59781 52200.00000 0 6644842.708 22956956.431 -8901524.556 10 0 59781 53100.00000 0 6891435.346 23846452.956 -5868080.498 10 0 59781 54000.00000 0 7124696.390 24343053.623 -2720613.364 10 0 59781 54900.00000 0 7289367.321 24444789.502 479700.363 10 0 59781 55800.00000 0 7331837.808 24162836.574 3670702.694 10 0 59781 56700.00000 0 7202645.432 23520953.789 6790462.999 10 0 59781 57600.00000 0 6858803.687 22554413.425 9778478.822 10 0 59781 58500.00000 0 6265859.793 21308470.055 12576845.182 10 0 59781 59400.00000 0 5399595.553 19836433.570 15131369.955 10 0 59781 60300.00000 0 4247299.678 18197427.773 17392614.311 10 0 59781 61200.00000 0 2808558.231 16453928.822 19316838.855 10 0 59781 62100.00000 0 1095529.900 14669186.318 20866838.336 10 0 59781 63000.00000 0 -867305.789 12904634.211 22012650.041 10 0 59781 63900.00000 0 -3043917.387 11217398.643 22732123.391 10 0 59781 64800.00000 0 -5387976.607 9658005.390 23011340.932 10 0 59781 65700.00000 0 -7844548.666 8268381.048 22844883.427 10 0 59781 66600.00000 0 -10352149.224 7080229.909 22235934.498 10 0 59781 67500.00000 0 -12845084.319 6113852.893 21196222.839 10 0 59781 68400.00000 0 -15255977.997 5377456.811 19745802.826 10 0 59781 69300.00000 0 -17518384.388 4866982.152 17912676.945 10 0 59781 70200.00000 0 -19569377.200 4566456.270 15732266.301 10 0 59781 71100.00000 0 -21352010.147 4448857.192 13246738.067 10 0 59781 72000.00000 0 -22817546.456 4477452.101 10504201.560 10 0 59781 72900.00000 0 -23927364.781 4607554.599 7557787.198 10 0 59781 73800.00000 0 -24654461.720 4788627.168 4464625.020 10 0 59781 74700.00000 0 -24984487.437 4966640.399 1284741.876 10 0 59781 75600.00000 0 -24916270.241 5086589.311 -1920101.778 10 0 59781 76500.00000 0 -24461807.113 5095059.996 -5087612.926 10 0 59781 77400.00000 0 -23645719.663 4942737.209 -8156181.141 10 0 59781 78300.00000 0 -22504197.580 4586745.620 -11066083.596 10 0 59781 79200.00000 0 -21083473.405 3992724.093 -13760655.683 10 0 59781 80100.00000 0 -19437892.516 3136543.514 -16187403.448 10 0 59781 81000.00000 0 -17627659.426 2005593.623 -18299035.282 10 0 59781 81900.00000 0 -15716355.335 599582.504 -20054391.984 10 0 59781 82800.00000 0 -13768331.668 -1069186.816 -21419256.283 10 0 59781 83700.00000 0 -11846089.447 -2976076.103 -22367025.617 10 0 59781 84600.00000 0 -10007754.883 -5084898.593 -22879234.698 10 0 59781 85500.00000 0 -8304757.403 -7349200.774 -22945917.493 10 0 59782 0.00000 0 -6779807.630 -9713986.270 -22565801.594 10 0 59782 900.00000 0 -5465259.066 -12117811.558 -21746330.975 10 0 59782 1800.00000 0 -4381923.674 -14495162.901 -20503517.433 10 0 59782 2700.00000 0 -3538387.372 -16779019.503 -18861623.149 10 0 59782 3600.00000 0 -2930855.048 -18903492.487 -16852681.238 10 0 59782 4500.00000 0 -2543529.267 -20806430.517 -14515863.896 10 0 59782 5400.00000 0 -2349505.129 -22431882.788 -11896710.916 10 0 59782 6300.00000 0 -2312141.754 -23732316.454 -9046234.119 10 0 59782 7200.00000 0 -2386850.711 -24670495.834 -6019915.869 10 0 59782 8100.00000 0 -2523224.106 -25220945.260 -2876621.867 10 0 59782 9000.00000 0 -2667410.823 -25370935.045 322549.914 10 0 59782 9900.00000 0 -2764639.156 -25120950.286 3515460.954 10 0 59782 10800.00000 0 -2761778.153 -24484624.097 6640140.883 10 0 59782 11700.00000 0 -2609828.728 -23488139.428 9635989.283 10 0 59782 12600.00000 0 -2266238.954 -22169125.861 12444947.091 10 0 59782 13500.00000 0 -1696945.736 -20575098.777 15012615.147 10 0 59782 14400.00000 0 -878056.866 -18761507.045 17289298.762 10 0 59782 15300.00000 0 202897.152 -16789471.393 19230958.891 10 0 59782 16200.00000 0 1546194.025 -14723307.926 20800052.638 10 0 59782 17100.00000 0 3139665.779 -12627939.600 21966248.139 10 0 59782 18000.00000 0 4958971.014 -10566302.723 22707001.178 10 0 59782 18900.00000 0 6968382.764 -8596855.180 23007983.639 10 0 59782 19800.00000 0 9122060.279 -6771288.612 22863356.353 10 0 59782 20700.00000 0 11365753.153 -5132538.231 22275881.654 10 0 59782 21600.00000 0 13638868.664 -3713171.545 21256873.561 10 0 59782 22500.00000 0 15876818.160 -2534221.814 19825986.234 10 0 59782 23400.00000 0 18013546.624 -1604513.834 18010844.028 10 0 59782 24300.00000 0 19984141.825 -920509.531 15846519.251 10 0 59782 25200.00000 0 21727415.660 -466679.439 13374866.356 10 0 59782 26100.00000 0 23188350.882 -216384.518 10643724.144 10 0 59782 27000.00000 0 24320311.459 -133231.410 7706000.069 10 0 59782 27900.00000 0 25086924.054 -172844.370 4618653.250 10 0 59782 28800.00000 0 25463551.233 -284979.439 1441595.180 10 0 59782 29700.00000 0 25438293.778 -415891.619 -1763471.024 10 0 59782 30600.00000 0 25012478.889 -510854.738 -4934250.339 10 0 59782 31500.00000 0 24200612.568 -516726.880 -8009070.819 10 0 59782 32400.00000 0 23029797.055 -384451.786 -10928089.649 10 0 59782 33300.00000 0 21538636.814 -71389.080 -13634465.989 10 0 59782 34200.00000 0 19775678.366 456626.847 -16075476.794 10 0 59782 35100.00000 0 17797449.121 1223588.154 -18203552.977 10 0 59782 36000.00000 0 15666177.386 2242048.690 -19977214.926 10 0 59782 36900.00000 0 13447289.400 3512348.164 -21361888.366 10 0 59782 37800.00000 0 11206788.573 5022359.779 -22330584.191 10 0 59782 38700.00000 0 9008627.033 6747773.513 -22864428.684 10 0 59782 39600.00000 0 6912179.849 8652904.373 -22953033.550 10 0 59782 40500.00000 0 4969927.725 10691992.684 -22594698.568 10 0 59782 41400.00000 0 3225444.941 12810942.601 -21796442.943 10 0 59782 42300.00000 0 1711776.372 14949426.279 -20573864.888 10 0 59782 43200.00000 0 450270.646 17043265.747 -18950832.424 10 0 59782 44100.00000 0 -550082.818 19026992.668 -16959011.637 10 0 59782 45000.00000 0 -1292786.585 20836478.540 -14637242.015 10 0 59782 45900.00000 0 -1793433.982 22411524.976 -12030771.449 10 0 59782 46800.00000 0 -2078792.778 23698305.342 -9190366.343 10 0 59782 47700.00000 0 -2185414.327 24651555.347 -6171314.847 10 0 59782 48600.00000 0 -2157828.897 25236420.897 -3032343.347 10 0 59782 49500.00000 0 -2046405.241 25429886.151 165532.017 10 0 59782 50400.00000 0 -1904966.420 25221722.477 3360195.645 10 0 59782 51300.00000 0 -1788264.015 24614919.441 6489640.893 10 0 59782 52200.00000 0 -1749418.369 23625580.782 9493172.787 10 0 59782 53100.00000 0 -1837433.615 22282290.803 12312581.441 10 0 59782 54000.00000 0 -2094892.580 20624978.762 14893263.701 10 0 59782 54900.00000 0 -2555928.795 18703329.499 17185271.808 10 0 59782 55800.00000 0 -3244560.754 16574807.271 19144269.548 10 0 59782 56700.00000 0 -4173458.282 14302375.274 20732378.556 10 0 59782 57600.00000 0 -5343192.673 11952005.529 21918899.623 10 0 59782 58500.00000 0 -6742002.127 9590082.011 22680896.324 10 0 59782 59400.00000 0 -8346082.735 7280803.787 23003630.876 10 0 59782 60300.00000 0 -10120393.720 5083694.606 22880844.702 10 0 59782 61200.00000 0 -12019944.469 3051320.817 22314878.857 10 0 59782 62100.00000 0 -13991511.203 1227310.764 21316632.134 10 0 59782 63000.00000 0 -15975713.473 -355243.543 19905357.342 10 0 59782 63900.00000 0 -17909365.663 -1674937.176 18108298.996 10 0 59782 64800.00000 0 -19728007.142 -2722708.546 15960178.346 10 0 59782 65700.00000 0 -21368506.963 -3501974.365 13502534.377 10 0 59782 66600.00000 0 -22771635.284 -4028237.966 10782932.215 10 0 59782 67500.00000 0 -23884494.607 -4328187.470 7854052.897 10 0 59782 68400.00000 0 -24662709.073 -4438321.566 4772680.981 10 0 59782 69300.00000 0 -25072279.563 -4403160.592 1598608.880 10 0 59782 70200.00000 0 -25091025.859 -4273118.295 -1606521.324 10 0 59782 71100.00000 0 -24709554.084 -4102124.311 -4780416.197 10 0 59782 72000.00000 0 -23931707.326 -3945098.261 -7861345.716 10 0 59782 72900.00000 0 -22774479.088 -3855383.112 -10789350.299 10 0 59782 73800.00000 0 -21267391.850 -3882247.461 -13507415.840 10 0 59782 74700.00000 0 -19451365.769 -4068563.806 -15962592.828 10 0 59782 75600.00000 0 -17377124.191 -4448762.545 -18107036.917 10 0 59782 76500.00000 0 -15103202.375 -5047149.894 -19898949.822 10 0 59782 77400.00000 0 -12693642.718 -5876662.394 -21303401.440 10 0 59782 78300.00000 0 -10215473.023 -6938112.199 -22293016.698 10 0 59782 79200.00000 0 -7736073.438 -8219956.390 -22848513.394 10 0 59782 80100.00000 0 -5320542.430 -9698601.242 -22959080.317 10 0 59782 81000.00000 0 -3029171.920 -11339229.600 -22622588.278 10 0 59782 81900.00000 0 -915136.987 -13097117.333 -21845629.956 10 0 59782 82800.00000 0 977503.621 -14919383.907 -20643387.934 10 0 59782 83700.00000 0 2615413.262 -16747103.766 -19039333.695 10 0 59782 84600.00000 0 3977123.375 -18517689.849 -17064763.704 10 0 59782 85500.00000 0 5053672.948 -20167448.914 -14758182.006 10 0 59783 0.00000 0 5848716.370 -21634201.002 -12164542.034 10 0 59783 900.00000 0 6378097.490 -22859853.492 -9334361.475 10 0 59783 1800.00000 0 6668908.837 -23792819.414 -6322731.710 10 0 59783 2700.00000 0 6758079.276 -24390181.023 -3188237.102 10 0 59783 3600.00000 0 6690550.558 -24619505.786 8190.619 10 0 59783 4500.00000 0 6517122.109 -24460239.660 3204461.192 10 0 59783 5400.00000 0 6292056.573 -23904619.553 6338533.962 10 0 59783 6300.00000 0 6070548.504 -22958067.395 9349621.463 10 0 59783 7200.00000 0 5906163.886 -21639050.102 12179364.855 10 0 59783 8100.00000 0 5848359.015 -19978412.109 14772958.644 10 0 59783 9000.00000 0 5940183.403 -18018209.014 17080203.427 10 0 59783 9900.00000 0 6216263.277 -15810091.542 19056467.005 10 0 59783 10800.00000 0 6701150.142 -13413307.271 20663536.452 10 0 59783 11700.00000 0 7408103.430 -10892402.996 21870345.861 10 0 59783 12600.00000 0 8338358.068 -8314722.595 22653566.972 10 0 59783 13500.00000 0 9480907.704 -5747803.194 22998052.448 10 0 59783 14400.00000 0 10812813.059 -3256776.217 22897124.171 10 0 59783 15300.00000 0 12300023.289 -901879.601 22352701.572 10 0 59783 16200.00000 0 13898677.206 1263817.373 21375267.673 10 0 59783 17100.00000 0 15556831.494 3196383.847 19983673.229 10 0 59783 18000.00000 0 17216545.340 4862611.298 18204782.038 10 0 59783 18900.00000 0 18816236.027 6241146.896 16072963.250 10 0 59783 19800.00000 0 20293208.563 7323129.932 13629439.167 10 0 59783 20700.00000 0 21586254.608 8112305.193 10921499.818 10 0 59783 21600.00000 0 22638212.632 8624608.762 8001598.174 10 0 59783 22500.00000 0 23398382.199 8887243.649 4926342.349 10 0 59783 23400.00000 0 23824690.689 8937283.952 1755403.565 10 0 59783 24300.00000 0 23885520.669 8819866.270 -1449639.461 10 0 59783 25200.00000 0 23561119.834 8586044.723 -4626497.355 10 0 59783 26100.00000 0 22844532.716 8290400.415 -7713384.570 10 0 59783 27000.00000 0 21742013.333 7988506.954 -10650227.317 10 0 59783 27900.00000 0 20272899.767 7734360.089 -13379840.697 10 0 59783 28800.00000 0 18468954.455 7577881.274 -15849051.095 10 0 59783 29700.00000 0 16373196.699 7562602.085 -18009741.113 10 0 59783 30600.00000 0 14038275.350 7723628.818 -19819795.840 10 0 59783 31500.00000 0 11524449.372 8085974.731 -21243931.231 10 0 59783 32400.00000 0 8897260.432 8663331.767 -22254387.979 10 0 59783 33300.00000 0 6224994.739 9457334.828 -22831476.953 10 0 59783 34200.00000 0 3576040.272 10457350.717 -22963965.369 10 0 59783 35100.00000 0 1016249.759 11640801.448 -22649296.141 10 0 59783 36000.00000 0 -1393580.601 12974008.923 -21893636.148 10 0 59783 36900.00000 0 -3600011.595 14413525.739 -20711752.648 10 0 59783 37800.00000 0 -5558945.116 15907896.215 -19126720.447 10 0 59783 38700.00000 0 -7237209.921 17399773.477 -17169465.764 10 0 59783 39600.00000 0 -8613683.790 18828303.192 -14878156.093 10 0 59783 40500.00000 0 -9679906.688 20131673.305 -12297448.355 10 0 59783 41400.00000 0 -10440161.032 21249722.037 -9477610.488 10 0 59783 42300.00000 0 -10911017.694 22126493.956 -6473534.309 10 0 59783 43200.00000 0 -11120369.048 22712636.245 -3343659.528 10 0 59783 44100.00000 0 -11105991.954 22967534.150 -148830.576 10 0 59783 45000.00000 0 -10913703.295 22861095.790 3048890.692 10 0 59783 45900.00000 0 -10595187.721 22375111.514 6187432.795 10 0 59783 46800.00000 0 -10205590.758 21504131.099 9205919.014 10 0 59783 47700.00000 0 -9800979.921 20255822.503 12045844.789 10 0 59783 48600.00000 0 -9435781.581 18650797.712 14652205.463 10 0 59783 49500.00000 0 -9160301.836 16721913.437 16974553.027 10 0 59783 50400.00000 0 -9018435.654 14513076.221 18967962.173 10 0 59783 51300.00000 0 -9045660.202 12077601.827 20593888.047 10 0 59783 52200.00000 0 -9267396.175 9476196.848 21820900.401 10 0 59783 53100.00000 0 -9697805.300 6774645.810 22625281.144 10 0 59783 54000.00000 0 -10339074.093 4041298.682 22991474.988 10 0 59783 54900.00000 0 -11181213.782 1344461.553 22912385.421 10 0 59783 55800.00000 0 -12202385.036 -1250202.905 22389510.873 10 0 59783 56700.00000 0 -13369734.626 -3682159.231 21432918.661 10 0 59783 57600.00000 0 -14640710.092 -5898265.981 20061056.955 10 0 59783 58500.00000 0 -15964798.725 -7854732.953 18300407.705 10 0 59783 59400.00000 0 -17285619.577 -9518688.876 16184986.257 10 0 59783 60300.00000 0 -18543282.360 -10869295.295 13755695.971 10 0 59783 61200.00000 0 -19676915.585 -11898360.795 11059549.057 10 0 59783 62100.00000 0 -20627258.783 -12610430.226 8148767.312 10 0 59783 63000.00000 0 -21339210.404 -13022345.286 5079779.007 10 0 59783 63900.00000 0 -21764224.155 -13162294.728 1912130.574 10 0 59783 64800.00000 0 -21862452.350 -13068394.059 -1292666.317 10 0 59783 65700.00000 0 -21604544.930 -12786854.473 -4472330.077 10 0 59783 66600.00000 0 -20973026.870 -12369818.365 -7565023.307 10 0 59783 67500.00000 0 -19963194.279 -11872953.179 -10510561.578 10 0 59783 68400.00000 0 -18583489.560 -11352905.907 -13251592.597 10 0 59783 69300.00000 0 -16855338.113 -10864726.695 -15734721.785 10 0 59783 70200.00000 0 -14812451.824 -10459371.553 -17911561.481 10 0 59783 71100.00000 0 -12499627.176 -10181390.919 -19739682.498 10 0 59783 72000.00000 0 -9971087.433 -10066902.981 -21183448.672 10 0 59783 72900.00000 0 -7288437.542 -10141938.499 -22214717.659 10 0 59783 73800.00000 0 -4518316.849 -10421228.072 -22813393.963 10 0 59783 74700.00000 0 -1729847.520 -10907483.852 -22967823.138 10 0 59783 75600.00000 0 1008014.940 -11591206.635 -22675019.502 10 0 59783 76500.00000 0 3629118.658 -12451026.873 -21940722.902 10 0 59783 77400.00000 0 6072629.919 -13454565.372 -20779283.590 10 0 59783 78300.00000 0 8285320.764 -14559777.350 -19213377.624 10 0 59783 79200.00000 0 10223534.727 -15716722.956 -17273558.610 10 0 59783 80100.00000 0 11854749.485 -16869689.180 -14997654.861 10 0 59783 81000.00000 0 13158672.309 -17959573.197 -12430024.193 10 0 59783 81900.00000 0 14127824.028 -18926426.067 -9620681.322 10 0 59783 82800.00000 0 14767588.824 -19712048.938 -6624315.600 10 0 59783 83700.00000 0 15095729.848 -20262531.785 -3499218.886 10 0 59783 84600.00000 0 15141393.192 -20530627.259 -306145.127 10 0 59783 85500.00000 0 14943644.226 -20477859.401 2892875.340 10 0 59784 0.00000 0 14549600.039 -20076278.420 6035742.863 10 0 59784 900.00000 0 14012238.105 -19309787.570 9061494.749 10 0 59784 1800.00000 0 13387975.473 -18174987.288 11911482.835 10 0 59784 2700.00000 0 12734120.642 -16681500.765 14530505.346 10 0 59784 3600.00000 0 12106306.349 -14851768.098 16867867.355 10 0 59784 4500.00000 0 11556011.102 -12720317.688 18878351.720 10 0 59784 5400.00000 0 11128273.286 -10332545.246 20523082.563 10 0 59784 6300.00000 0 10859693.173 -7743050.888 21770265.806 10 0 59784 7200.00000 0 10776805.903 -5013602.830 22595793.685 10 0 59784 8100.00000 0 10894892.896 -2210811.122 22983702.792 10 0 59784 9000.00000 0 11217280.948 596393.518 22926477.749 10 0 59784 9900.00000 0 11735158.109 3339372.837 22425195.259 10 0 59784 10800.00000 0 12427914.206 5952379.706 21489505.990 10 0 59784 11700.00000 0 13263992.311 8375036.392 20137454.393 10 0 59784 12600.00000 0 14202216.396 10554591.250 18395139.295 10 0 59784 13500.00000 0 15193540.709 12447861.596 16296220.798 10 0 59784 14400.00000 0 16183148.791 14022783.060 13881281.778 10 0 59784 15300.00000 0 17112815.223 15259501.556 11197054.928 10 0 59784 16200.00000 0 17923431.860 16150962.678 8295529.038 10 0 59784 17100.00000 0 18557592.903 16702973.970 5232950.564 10 0 59784 18000.00000 0 18962130.090 16933737.264 2068739.050 10 0 59784 18900.00000 0 19090490.807 16872870.522 -1135663.102 10 0 59784 19800.00000 0 18904857.931 16559960.155 -4317984.355 10 0 59784 20700.00000 0 18377920.662 16042704.679 -7416337.731 10 0 59784 21600.00000 0 17494219.953 15374728.173 -10370430.382 10 0 59784 22500.00000 0 16251009.896 14613156.203 -13122744.731 10 0 59784 23400.00000 0 14658596.836 13816057.214 -15619667.213 10 0 59784 24300.00000 0 12740140.018 13039858.273 -17812541.756 10 0 59784 25200.00000 0 10530920.438 12336845.296 -19658626.605 10 0 59784 26100.00000 0 8077107.165 11752854.329 -21121935.070 10 0 59784 27000.00000 0 5434071.758 11325252.300 -22173943.273 10 0 59784 27900.00000 0 2664320.436 11081293.297 -22794150.726 10 0 59784 28800.00000 0 -164869.963 11036920.369 -22970482.556 10 0 59784 29700.00000 0 -2984013.886 11196063.793 -22699525.503 10 0 59784 30600.00000 0 -5724070.116 11550465.569 -21986593.112 10 0 59784 31500.00000 0 -8319075.402 12080037.477 -20845618.990 10 0 59784 32400.00000 0 -10708649.069 12753737.273 -19298880.397 10 0 59784 33300.00000 0 -12840264.536 13530925.613 -17376557.822 10 0 59784 34200.00000 0 -14671193.440 14363145.757 -15116139.476 10 0 59784 35100.00000 0 -16170042.110 15196250.245 -12561682.737 10 0 59784 36000.00000 0 -17317817.333 15972783.915 -9762947.424 10 0 59784 36900.00000 0 -18108478.261 16634521.891 -6774418.453 10 0 59784 37800.00000 0 -18548953.172 17125054.599 -3654237.618 10 0 59784 38700.00000 0 -18658622.327 17392310.078 -463065.962 10 0 59784 39600.00000 0 -18468290.734 17390906.657 2737100.292 10 0 59784 40500.00000 0 -18018696.029 17084236.530 5884136.639 10 0 59784 41400.00000 0 -17358616.111 16446192.302 8916996.162 10 0 59784 42300.00000 0 -16542657.698 15462463.959 11776890.653 10 0 59784 43200.00000 0 -15628819.976 14131351.920 14408424.259 10 0 59784 44100.00000 0 -14675936.457 12464062.200 16760658.153 10 0 59784 45000.00000 0 -13741102.760 10484471.472 18788086.304 10 0 59784 45900.00000 0 -12877197.996 8228371.701 20451504.587 10 0 59784 46800.00000 0 -12130603.113 5742225.458 21718757.637 10 0 59784 47700.00000 0 -11539210.946 3081483.037 22565350.250 10 0 59784 48600.00000 0 -11130810.288 308530.240 22974912.753 10 0 59784 49500.00000 0 -10921910.734 -2509649.446 22939512.333 10 0 59784 50400.00000 0 -10917056.723 -5304002.916 22459804.919 10 0 59784 51300.00000 0 -11108659.115 -8006022.822 21545024.970 10 0 59784 52200.00000 0 -11477351.317 -10550343.724 20212813.128 10 0 59784 53100.00000 0 -11992855.447 -12877213.013 18488884.450 10 0 59784 54000.00000 0 -12615322.959 -14934735.574 16406542.639 10 0 59784 54900.00000 0 -13297094.406 -16680800.114 14006048.399 10 0 59784 55800.00000 0 -13984805.465 -18084607.649 11333852.793 10 0 59784 56700.00000 0 -14621751.597 -19127738.882 8441709.087 10 0 59784 57600.00000 0 -15150412.444 -19804715.905 5385679.085 10 0 59784 58500.00000 0 -15515029.880 -20123034.461 2225052.356 10 0 59784 59400.00000 0 -15664130.783 -20102665.090 -978801.230 10 0 59784 60300.00000 0 -15552887.342 -19775043.715 -4163623.590 10 0 59784 61200.00000 0 -15145214.086 -19181593.834 -7267481.661 10 0 59784 62100.00000 0 -14415511.516 -18371842.471 -10229977.692 10 0 59784 63000.00000 0 -13349980.833 -17401209.397 -12993432.316 10 0 59784 63900.00000 0 -11947452.347 -16328563.289 -15504016.359 10 0 59784 64800.00000 0 -10219690.560 -15213648.470 -17712808.494 10 0 59784 65700.00000 0 -8191161.124 -14114491.569 -19576757.241 10 0 59784 66600.00000 0 -5898267.803 -13084898.296 -21059527.797 10 0 59784 67500.00000 0 -3388089.947 -12172146.695 -22132216.644 10 0 59784 68400.00000 0 -716672.232 -11414974.775 -22773919.625 10 0 59784 69300.00000 0 2053062.543 -10841947.849 -22972142.159 10 0 59784 70200.00000 0 4853690.965 -10470274.609 -22723043.546 10 0 59784 71100.00000 0 7615857.916 -10305121.797 -22031510.629 10 0 59784 72000.00000 0 10270929.803 -10339456.073 -20911059.478 10 0 59784 72900.00000 0 12753621.615 -10554419.201 -19383567.228 10 0 59784 73800.00000 0 15004488.440 -10920219.958 -17478839.519 10 0 59784 74700.00000 0 16972177.702 -11397504.234 -15234022.332 10 0 59784 75600.00000 0 18615348.679 -11939144.428 -12692870.116 10 0 59784 76500.00000 0 19904179.902 -12492371.493 -9904884.933 10 0 59784 77400.00000 0 20821402.452 -13001158.463 -6924344.092 10 0 59784 78300.00000 0 21362817.355 -13408753.731 -3809235.881 10 0 59784 79200.00000 0 21537277.072 -13660256.148 -620124.842 10 0 59784 80100.00000 0 21366133.701 -13705122.442 2581030.567 10 0 59784 81000.00000 0 20882179.002 -13499500.561 5732084.277 10 0 59784 81900.00000 0 20128122.623 -13008290.225 8771909.069 10 0 59784 82800.00000 0 19154674.092 -12206843.720 11641579.447 10 0 59784 83700.00000 0 18018310.456 -11082235.414 14285508.123 10 0 59784 84600.00000 0 16778824.160 -9634046.680 16652514.570 10 0 59784 85500.00000 0 15496754.447 -7874633.407 18696805.600 99